Location: Bonac
(42.8765°N, 0.9753°E)
Time: 04:03:11
(UTC+00:00)

NOAA 15 - Pass Details

Date: 22 April 2026
Orbit: 793 x 810 km, 98.5° (Epoch: 11 May)

Event Time Altitude Azimuth Distance (km) Brightness Sun altitude
Rises 19:14:36 0° 197° (SSW) 3,308 7.7 -5.7°
Reaches altitude 10° 19:17:18 10° 210° (SSW) 2,380 7.1 -6.1°
Maximum altitude 19:21:39 26° 266° (W) 1,543 6.9 -6.9°
Drops below altitude 10° 19:26:01 10° 322° (NW) 2,386 8.2 -7.6°
Sets 19:28:45 0° 335° (NNW) 3,318 8.7 -8.0°
